Location: Marcé
(47.5801°N, 0.3280°W)
Time: 12:47:05
(UTC+01:00)

ISS - Pass Details

Date: 26 October 2021
Orbit: 417 x 422 km, 51.6° (Epoch: 07 December)

Event Time Altitude Azimuth Distance (km) Brightness Sun altitude
Exits shadow 05:34:51 11° 101° (E) 1,455 -0.3 -31.0°
Drops below altitude 10° 05:35:02 10° 98° (E) 1,499 -0.2 -30.9°
Sets 05:37:45 0° 75° (ENE) 2,365 1.2 -30.5°
